744  
ASUS44 KLIX 231015  
RWRLIX  
NEW ORLEANS REGIONAL WEATHER ROUNDUP  
NATIONAL WEATHER SERVICE NEW ORLEANS LA  
500 AM CDT SAT OCT 23 2021  
 
NOTE: "FAIR" INDICATES FEW OR NO CLOUDS BELOW 12,000 FEET WITH NO  
SIGNIFICANT WEATHER AND/OR S TO VISIBILITY
.  
SKY/WX - SKY CONDITION AND SIGNIFICANT WEATHER.  
TMP - AIR TEMPERATURE. DP - DEWPOINT TEMPERATURE.  
RH - RELATIVE HUMIDITY. PRES - PRESSURE.  
HI - HEAT INDEX. WCI - WIND CHILL INDEX.  
 
* THESE STATIONS ARE NOT NWS OR FAA STATIONS AND ARE NOT UNDER  
NWS QUALITY CONTROL.  
 
LAZ038-048-061-063-065>067-069-076-077-231100-  
SOUTHEAST LOUISIANA  
 
CITY SKY/WX TMP DP RH WIND PRES REMARKS
 
N.O. INTL ARPT PTCLDY 74 72 93 NE3 29.98S  
N.O. DWNTWN HE FAIR 76 73 91 E5 30.00S  
N.O. LAKEFRONT CLEAR 75 72 90 E9 29.99S  
RESERVE* FAIR 69 68 98 CALM 29.99S FOG  
SLIDELL CLEAR 64 60 87 CALM 30.00S  
BATON ROUGE MOCLDY 67 66 97 NE3 29.98F  
BOOTHVILLE* NOT AVBL  
BELLE CHASSE* FOG 71 71 100 CALM 29.98S VSB 1/4  
BOGALUSA* FAIR 60 57 92 N3 30.02S  
GALLIANO* NOT AVBL  
NEW ROADS* FAIR 65 65 100 CALM 29.99S  
GONZALES* FAIR 68 68 99 CALM 29.98S FOG  
HAMMOND* PTCLDY 68 61 77 E3 30.00S  
HOUMA* NOT AVBL  
 

 
 
MSZ070-077-080>082-231100-  
SOUTHERN MISSISSIPPI  
 
CITY SKY/WX TMP DP RH WIND PRES REMARKS
 
MCCOMB CLEAR 60 58 92 CALM 30.01S  
PICAYUNE* N/A 59 59 100 CALM 30.00F  
GULFPORT CLEAR 66 57 72 E6 30.00S  
BILOXI CLEAR 65 58 78 E8 29.99S  
PASCAGOULA CLEAR 61 59 93 CALM 30.01S  
 

 
 
COASTAL OBSERVATIONS  
LAKE AND NEARSHORE STATIONS  
 
STATION/POSITION TIME SKY/WX TEMP WIND PRES WAVE
 
AIR SEA DIR/SP/G HT/PER  
(UTC) (F) (DEG/KT/KT) (MB) (FT/S)  
WAVELAND YACHT 0930 69 76 70/ 7/ 9 1016.2  
GRAND ISLE 0930 79 80 1015.2  
SOUTHWEST PASS 0930 77 79 1013.4  
NEW CANAL 0930 75 77 70/ 5/ 6 1014.6  
SHELL BEACH 0930 75 79 50/ 7/ 8 1015.5  
 
OFFSHORE STATIONS  
 
STATION/POSITION TIME SKY/WX TEMP WIND PRES WAVE
 
AIR SEA DIR/SP/G HT/PER  
(UTC) (F) (DEG/KT/KT) (MB) (FT/S)  
64 S DAUPHIN ISL 0950 78 80 40/ 8/ 10 1015.6 2/ 8  
SW PASS ENTRANCE 0900 78 79 N/A 2/ 8  
 

 
 
 
 
CLICK HERE TO GO TO PREVIOUS BULLETINS.

The Nexlab LA Page
The Nexlab MS Page Main Text Page